[[{"header":{"parameterUnit":"m.s-1","parameterCategory":1,"la1":30.2991,"la2":30.254,"lo1":-89.0895,"lo2":-89.0444,"dy":0.0017,"dx":0.0017,"nx":28,"ny":28,"refTime":"2025-04-26T21:00:00:Z","depth":0,"parameterNumber":2,"parameterNumberName":"U-component_of_WINDS"},"data":[0,0,0,0,0,0,0,0,0,0,0,0,0,0,0,0,0,0,0,0,0,0,0,0,0,0,0,0,0,0,0,0,0,0,0,0,0,0,0,0,0,0,0,0,0,0,0,0,0,0,0,0,0,0,0,0,0,0,0.8385,0.8387,0,0.8561,0.8563,0.8565,0.8624,0.8623,0.8622,0.8622,0.8804,0.8809,0.8815,0,0,0,0,0,0,0,0,0,0,0,0,0,0.81,0.8105,0.8385,0.8387,0.8389,0.856,0.8563,0.8565,0.8624,0.8623,0.8622,0.8621,0.8802,0.8809,0.8815,0,0,0,0,0,0,0,0,0,0,0,0,0,0.8245,0.8107,0.8384,0.8439,0.8446,0.856,0.8563,0.8566,0.8624,0.8623,0.8622,0.8621,0.88,0.8808,0.8816,0.889,0,0,0.8842,0.8845,0,0,0,0,0,0,0,0,0.8237,0.8255,0.8429,0.8435,0.8443,0.8569,0.853,0.8675,0.8624,0.8556,0.8622,0.862,0.8727,0.8741,0.8777,0.8898,0.8906,0.8842,0.8847,0.8851,0.8853,0,0,0,0,0,0,0,0.8226,0.8248,0.8454,0.8431,0.844,0.8455,0.8474,0.8557,0.8646,0.8562,0.8567,0.8587,0.8731,0.8769,0.8781,0.8909,0.8842,0.885,0.8855,0.8858,0.9099,0.9101,0,0,0,0,0,0,0.8207,0.8239,0.8449,0.846,0.8335,0.8461,0.8483,0.853,0.8645,0.8661,0.8588,0.8589,0.8755,0.8772,0.8788,0.8882,0.8851,0.8859,0.8864,0.9098,0.91,0.9101,0,0,0,0,0,0,0.8201,0.8225,0.8442,0.8351,0.838,0.8467,0.852,0.8534,0.8572,0.8664,0.868,0.861,0.8755,0.8776,0.8864,0.8889,0.8863,0.887,0.9096,0.9098,0.91,0.9069,0,0,0,0,0,0,0.8192,0.8223,0.8251,0.8351,0.8384,0.8514,0.8521,0.8538,0.8586,0.8589,0.869,0.8705,0.8755,0.8851,0.8872,0.89,0.8877,0.9094,0.9097,0.91,0.9068,0.9069,0.9071,0,0,0,0,0,0.8182,0.8236,0.8252,0.8277,0.8421,0.8515,0.8534,0.8591,0.8587,0.8617,0.8676,0.8702,0.8882,0.886,0.8884,0.8914,0.9093,0.9096,0.9099,0.9067,0.9069,0.9071,0,0,0,0,0,0,0.8137,0.825,0.8269,0.8357,0.8426,0.8525,0.8564,0.8591,0.8663,0.8663,0.873,0.8753,0.8835,0.8883,0.8856,0.8991,0.8989,0.8997,0.8956,0.8959,0.896,0.8947,0.8883,0,0,0,0,0,0.8137,0.8203,0.8298,0.8366,0.84,0.8476,0.8519,0.8556,0.8631,0.866,0.8726,0.8798,0.8871,0.8918,0.899,0.9075,0.9098,0.9108,0.9109,0.911,0.9116,0.9165,0.917,0.9112,0.9112,0.9112,0,0,0.8138,0.8208,0.8246,0.8359,0.8417,0.8484,0.85,0.8571,0.8622,0.8671,0.8758,0.8808,0.8893,0.8979,0.9021,0.9022,0.9137,0.9114,0.9114,0.912,0.9169,0.9174,0.9179,0.9114,0.9113,0.9113,0,0,0.8174,0.8234,0.8297,0.8354,0.8442,0.8492,0.8507,0.8602,0.8637,0.8725,0.8763,0.8825,0.8949,0.9008,0.9054,0.9112,0.9138,0.9134,0.9141,0.9188,0.9192,0.9197,0.9217,0.9224,0.914,0.914,0.914,0,0.8165,0.8268,0.8326,0.8395,0.8443,0.8491,0.8555,0.8608,0.8715,0.8748,0.8748,0.8904,0.8965,0.9065,0.9079,0.9115,0.9134,0.9123,0.9187,0.9192,0.9197,0.9217,0.9225,0.9138,0.9139,0.9139,0.9139,0,0.8251,0.8322,0.8363,0.8464,0.8517,0.8583,0.8652,0.8699,0.8731,0.8781,0.887,0.8944,0.9032,0.9058,0.9091,0.9164,0.9162,0.9173,0.9173,0.92,0.9221,0.9229,0.9137,0.9137,0.9138,0.9138,0,0,0.8265,0.8397,0.841,0.8457,0.8556,0.8612,0.8681,0.8766,0.8805,0.8877,0.8936,0.904,0.9051,0.9103,0.9143,0.9183,0.9224,0.919,0.9193,0.9194,0.9309,0.9299,0.9307,0.9242,0.9244,0.9245,0.9302,0,0.8314,0.8437,0.8492,0.8591,0.8657,0.8703,0.8762,0.883,0.8878,0.8942,0.8996,0.9068,0.9077,0.9109,0.9151,0.921,0.9248,0.9207,0.9298,0.9301,0.9275,0.9318,0.9309,0.9358,0.931,0.9311,0.9312,0,0.8388,0.8459,0.8564,0.8656,0.8686,0.8738,0.8821,0.8881,0.8958,0.8991,0.9048,0.9086,0.916,0.9154,0.9257,0.9227,0.9268,0.9302,0.9306,0.9316,0.9308,0.933,0.9375,0.9383,0.9325,0.9324,0.9323,0,0.8386,0.8509,0.8588,0.8626,0.8735,0.8771,0.8818,0.8894,0.8942,0.9014,0.9046,0.9126,0.9169,0.923,0.9289,0.9279,0.9386,0.9385,0.9415,0.9414,0.9436,0.9434,0.9488,0.9462,0.9462,0.9461,0.9461,0,0.8436,0.8498,0.8589,0.8637,0.8709,0.8771,0.884,0.8891,0.8958,0.9017,0.9062,0.9117,0.9191,0.9255,0.9301,0.9379,0.9399,0.9427,0.9439,0.9423,0.9419,0.9451,0.9449,0.9463,0.9463,0.9463,0.9462,0,0.8446,0.8509,0.8598,0.8694,0.8719,0.8768,0.885,0.8899,0.8949,0.9023,0.9045,0.9124,0.9202,0.9266,0.9368,0.9399,0.9481,0.9494,0.9454,0.946,0.9487,0.9483,0.9563,0.9577,0.9541,0.9541,0.9541,0,0.8473,0.8523,0.8623,0.8666,0.8712,0.8781,0.8829,0.8892,0.8941,0.9033,0.9071,0.9152,0.922,0.9342,0.9409,0.9488,0.9503,0.9526,0.9515,0.9498,0.9504,0.95,0.9505,0.9527,0.9527,0.9527,0.9527,0,0.8515,0.8544,0.8612,0.8691,0.8748,0.8814,0.888,0.8913,0.8988,0.9041,0.912,0.9173,0.9277,0.9357,0.9442,0.9491,0.9522,0.953,0.9541,0.9525,0.95,0.9514,0.9456,0.9528,0.9527,0.9527,0.9527,0.9527,0.8535,0.8581,0.8658,0.8733,0.879,0.8851,0.8902,0.8958,0.9026,0.9115,0.9148,0.923,0.9306,0.9424,0.9473,0.9538,0.9542,0.9558,0.9562,0.9565,0.9563,0.9489,0.9554,0.9554,0.9554,0.9554,0.9554,0,0.8578,0.8631,0.8699,0.879,0.8849,0.8872,0.8947,0.8995,0.9066,0.9134,0.92,0.9292,0.9369,0.9442,0.9523,0.9561,0.9577,0.958,0.9578,0.9589,0.9555,0.9537,0.9566,0.9566,0.9566,0.9566,0.9566,0.9566,0.8608,0.8687,0.8724,0.8832,0.8884,0.8964,0.9005,0.9061,0.9116,0.9216,0.9281,0.9327,0.9398,0.9484,0.9557,0.9576,0.9604,0.9603,0.9626,0.9593,0.9591,0.9589,0.9573,0.9609,0.9609,0.9655,0.9655,0.9656]},{"header":{"parameterUnit":"m.s-1","parameterCategory":1,"la1":30.2991,"la2":30.254,"lo1":-89.0895,"lo2":-89.0444,"dy":0.0017,"dx":0.0017,"nx":28,"ny":28,"refTime":"2025-04-26T21:00:00:Z","depth":0,"parameterNumber":3,"parameterNumberName":"V-component_of_WINDS"},"data":[0,0,0,0,0,0,0,0,0,0,0,0,0,0,0,0,0,0,0,0,0,0,0,0,0,0,0,0,0,0,0,0,0,0,0,0,0,0,0,0,0,0,0,0,0,0,0,0,0,0,0,0,0,0,0,0,0,0,3.7152,3.7151,0,3.7103,3.7103,3.7102,3.7092,3.7092,3.7092,3.7093,3.7036,3.7034,3.7032,0,0,0,0,0,0,0,0,0,0,0,0,0,3.7229,3.7228,3.7152,3.7151,3.7151,3.7103,3.7103,3.7102,3.7092,3.7092,3.7092,3.7093,3.7036,3.7034,3.7032,0,0,0,0,0,0,0,0,0,0,0,0,0,3.719,3.7228,3.7152,3.714,3.7139,3.7104,3.7103,3.7102,3.7091,3.7092,3.7093,3.7093,3.7037,3.7034,3.7031,3.7003,0,0,3.7023,3.7022,0,0,0,0,0,0,0,0,3.7192,3.7187,3.7142,3.7141,3.7139,3.7104,3.7109,3.7068,3.7091,3.7109,3.7093,3.7093,3.7058,3.7053,3.7042,3.7,3.6998,3.7023,3.7021,3.702,3.7019,0,0,0,0,0,0,0,3.7195,3.7189,3.7133,3.7142,3.714,3.7135,3.713,3.7101,3.708,3.7108,3.7107,3.7102,3.7057,3.7045,3.7041,3.6997,3.7023,3.702,3.7019,3.7017,3.6928,3.6928,0,0,0,0,0,0,3.72,3.7191,3.7134,3.7131,3.7168,3.7133,3.7127,3.7115,3.7081,3.7076,3.7101,3.7101,3.705,3.7044,3.7039,3.7003,3.702,3.7017,3.7016,3.6929,3.6928,3.6927,0,0,0,0,0,0,3.7202,3.7195,3.7136,3.7161,3.7153,3.7131,3.7117,3.7113,3.7102,3.7076,3.7072,3.7094,3.705,3.7043,3.7012,3.7001,3.7016,3.7013,3.693,3.6929,3.6928,3.6932,0,0,0,0,0,0,3.7204,3.7196,3.7187,3.7161,3.7152,3.7112,3.7116,3.7112,3.7098,3.7098,3.7068,3.7063,3.705,3.7017,3.701,3.6998,3.7011,3.6931,3.6929,3.6928,3.6933,3.6931,3.693,0,0,0,0,0,3.7207,3.7188,3.7186,3.7179,3.714,3.7112,3.7106,3.7093,3.7097,3.7087,3.707,3.7064,3.7004,3.7014,3.7006,3.6993,3.6931,3.693,3.6928,3.6933,3.6931,3.693,0,0,0,0,0,0,3.7211,3.7185,3.7182,3.7155,3.7136,3.711,3.7096,3.7092,3.7069,3.707,3.7052,3.7045,3.7016,3.7001,3.7013,3.6963,3.6967,3.6964,3.6974,3.6972,3.6971,3.6975,3.7009,0,0,0,0,0,3.7209,3.719,3.7168,3.7145,3.7136,3.7118,3.7105,3.7097,3.7076,3.7067,3.7048,3.7026,3.7002,3.6986,3.6962,3.693,3.6923,3.6917,3.6916,3.6915,3.6912,3.6894,3.6891,3.6922,3.6922,3.6922,0,0,3.7203,3.7187,3.7176,3.7146,3.713,3.711,3.7111,3.7089,3.7073,3.7063,3.7034,3.7019,3.6993,3.6962,3.6947,3.6948,3.6902,3.6913,3.6912,3.691,3.6892,3.6889,3.6886,3.6921,3.6921,3.6922,0,0,3.7184,3.717,3.715,3.7135,3.7113,3.7101,3.7096,3.7071,3.7061,3.7032,3.7024,3.7004,3.6963,3.6944,3.693,3.6904,3.6897,3.6896,3.6888,3.6871,3.6868,3.6866,3.6856,3.6853,3.6893,3.6893,3.6893,0,3.7179,3.7151,3.714,3.7119,3.7105,3.7098,3.7076,3.7061,3.7031,3.7021,3.7023,3.6972,3.6954,3.6918,3.6912,3.6901,3.6893,3.6899,3.687,3.6868,3.6865,3.6856,3.6852,3.6893,3.6893,3.6893,3.6893,0,3.7146,3.7126,3.7113,3.7087,3.7071,3.705,3.7034,3.702,3.7013,3.7,3.697,3.6948,3.692,3.691,3.6902,3.6873,3.6875,3.6874,3.6878,3.6862,3.6853,3.6849,3.6893,3.6893,3.6893,3.6893,0,0,3.7127,3.7096,3.7091,3.708,3.7054,3.7037,3.7015,3.699,3.6978,3.6957,3.6937,3.6903,3.6902,3.6885,3.6875,3.686,3.684,3.686,3.6859,3.6857,3.6806,3.6807,3.6803,3.6836,3.6835,3.6835,3.6808,0,3.7104,3.7068,3.7057,3.7025,3.7006,3.6998,3.6979,3.696,3.6947,3.6927,3.6912,3.6888,3.6889,3.6879,3.6863,3.6846,3.6829,3.6847,3.6815,3.6814,3.6822,3.6798,3.6799,3.6776,3.6804,3.6804,3.6803,0,3.7073,3.7054,3.7021,3.6999,3.699,3.6973,3.695,3.6931,3.6909,3.6901,3.6883,3.6874,3.6848,3.6854,3.6818,3.6831,3.6816,3.6806,3.6804,3.6801,3.6808,3.6794,3.6768,3.6764,3.6798,3.6798,3.6798,0,3.7062,3.7028,3.7004,3.6994,3.6968,3.6956,3.6944,3.6922,3.6908,3.6886,3.6876,3.6851,3.6837,3.6816,3.68,3.6806,3.6765,3.677,3.6756,3.6756,3.6748,3.6748,3.6719,3.6739,3.6739,3.6739,3.6739,0,3.7037,3.7017,3.6999,3.6985,3.6961,3.6949,3.6925,3.6912,3.6893,3.6874,3.6865,3.6847,3.6827,3.6805,3.6792,3.6764,3.6757,3.6748,3.6745,3.6749,3.675,3.6739,3.6741,3.6738,3.6738,3.6738,3.6739,0,3.7021,3.7009,3.6982,3.696,3.6954,3.6937,3.6917,3.6901,3.6888,3.6864,3.6858,3.6837,3.6811,3.6793,3.6759,3.675,3.672,3.6716,3.6728,3.6726,3.6714,3.6715,3.6676,3.667,3.6694,3.6694,3.6694,0,3.7007,3.6992,3.6968,3.6956,3.6945,3.6925,3.6911,3.6897,3.6883,3.6857,3.6843,3.6818,3.6797,3.6755,3.6735,3.6709,3.6705,3.6693,3.6701,3.6706,3.6705,3.6706,3.6704,3.6692,3.6692,3.6692,3.6692,0,3.6982,3.6977,3.6958,3.6938,3.6922,3.6904,3.6886,3.6876,3.6859,3.6843,3.6818,3.6802,3.6768,3.6742,3.6714,3.6699,3.6692,3.669,3.6685,3.6689,3.6696,3.6692,3.6725,3.669,3.669,3.669,3.6691,3.6691,3.6966,3.6952,3.6934,3.6914,3.6899,3.6883,3.6867,3.6854,3.6834,3.6807,3.68,3.6773,3.675,3.6713,3.6697,3.6675,3.6676,3.6669,3.6667,3.6666,3.6666,3.67,3.667,3.667,3.667,3.667,3.667,0,3.6941,3.6929,3.6911,3.6887,3.6871,3.6868,3.6848,3.6834,3.6812,3.6793,3.6773,3.6744,3.6718,3.6697,3.6671,3.6657,3.6653,3.665,3.6651,3.6647,3.6667,3.6674,3.6654,3.6654,3.6654,3.6654,3.6654,3.6654,3.6926,3.6903,3.6895,3.6864,3.6851,3.6828,3.6817,3.6801,3.6786,3.6755,3.6735,3.6722,3.6701,3.6673,3.6649,3.6644,3.6634,3.6632,3.6625,3.6644,3.6646,3.6648,3.6654,3.663,3.663,3.6608,3.6607,3.6607]}]]